Regional Weather Roundup
Issued by NWS Albany, NY

Home | Current Version | Previous Version | Text Only | Print | Product List | Glossary On
Versions: 1 2 3 4 5 6 7 8 9 10 11 12 13 14 15 16 17 18 19 20 21 22 23 24 25 26 27 28 29 30 31 32 33 34 35 36 37 38 39 40 41 42 43 44 45 46 47 48 49 50
000
ASUS41 KALY 050410
RWRALY

NEW YORK STATE HOURLY WEATHER ROUNDUP
NATIONAL WEATHER SERVICE ALBANY NY
1100 PM EST WED MAR 04 2015

NOTE: "FAIR" INDICATES FEW OR NO CLOUDS BELOW 12,000 FEET WITH NO
SIGNIFICANT WEATHER AND/OR NO OBSTRUCTIONS TO VISIBILITY.

NYZ032-033-038>043-046>054-057>066-NYZ062>081-050500-
EAST


CITY           SKY/WX    TMP DP  RH WIND       PRES   REMARKS
ALBANY         CLOUDY    34  22  61 NW14      29.94R WCI  25
GLENS FALLS    CLOUDY    33  20  58 CALM      29.90R
POUGHKEEPSIE   CLOUDY    38  33  82 SW6       29.89R WCI  33
NEWBURGH       CLOUDY    39  34  81 W12       29.90R WCI  32
MONTGOMERY     CLOUDY    37  34  89 SW6       29.89R WCI  32
WHITE PLAINS   RAIN      39  37  92 W8        29.89R FOG     WCI  33
ISLIP          LGT RAIN  39  37  92 W6        29.89S FOG     WCI  35
NEW YORK CITY  LGT RAIN  43  37  79 W7G17     29.91S
CENTRAL PARK   LGT RAIN  41  38  89 W9        29.94R FOG
$$

NYZ005>009-017-018-044>046-055-056-050500-
CENTRAL


CITY           SKY/WX    TMP DP  RH WIND       PRES   REMARKS
FULTON         CLOUDY    27  17  66 NW14      29.97R WCI  16
SYRACUSE       LGT SNOW  25  24  96 W9        29.95F FOG     WCI  15
ROME           CLOUDY    28  22  78 W17       29.95S WCI  16
ELMIRA         CLOUDY    34  22  61 W13G20    29.94R WCI  25
BINGHAMTON     CLOUDY    29  20  69 NW9       29.89R WCI  20
MONTICELLO     CLOUDY    34  30  86 W10       29.88R WCI  26
$$

NYZ026>034-041>043-050500-
NORTH


CITY           SKY/WX    TMP DP  RH WIND       PRES   REMARKS
WATERTOWN      CLOUDY    25  12  58 W8        29.97S WCI  16
FORT DRUM      NOT AVBL
MASSENA        CLOUDY    24   3  40 W22G28    29.94R WCI   9
SARANAC LAKE   CLOUDY    21   7  54 W14G26    29.82R WCI   8
PLATTSBURGH    CLOUDY    30   8  39 W10G22    29.88R WCI  21
$$

NYZ001>004-010>016-019>021-050500-
WEST


CITY           SKY/WX    TMP DP  RH WIND       PRES   REMARKS
NIAGARA FALLS  CLOUDY    25  15  66 NW20G26   30.03R WCI  11
BUFFALO        CLOUDY    27  18  69 NW18      30.01R WCI  14
DUNKIRK        CLOUDY    26  20  77 W10       30.06R WCI  16
JAMESTOWN      CLOUDY    25  18  74 W13       29.98R WCI  13
WELLSVILLE     CLOUDY    26  16  65 W12       29.91F WCI  16
ROCHESTER      LGT SNOW  26  23  88 N9        29.99S FOG     WCI  17
PENN YAN       CLOUDY    31  20  63 W13       29.94S WCI  21
$$

             KEY
       WCI = WIND CHILL INDEX
       VSB = VISIBILITY
       HX  = HEAT INDEX
$$



USA.gov is the U.S. government's official web portal to all federal, state and local government web resources and services.